Home > Weather > Košice > Past weeks

Flag for Slovakia Past Weather in Košice, Slovakia — Yesterday and Last 2 Weeks

Now
61 °F

Clear.


Feels Like: 61 °F
Forecast: 56 / 74 °F
Wind: 5 mph from West

Location: Kosice - Barca

Current Time: May 31, 2016 at 2:13:05 AM

Latest Report: May 31, 2016 at 2:00 AM


Visibility: 10 mi

Pressure: 29.80 "Hg

Humidity: 94%

Dew Point: 59 °F

Location of KošiceLocation

Past Weather in Košice — Graph

°F

Košice Temperature Yesterday

Maximum temperature yesterday: 77 °F (at 4:30 PM)
Minimum temperature yesterday: 61 °F (at 4:00 AM)
Average temperature yesterday: 68 °F

High & Low Weather Summary for the Past Weeks

 TemperatureHumidityPressure
High81 °F (May 29, 2:00 PM)100% (May 17, 5:00 AM)30.12 "Hg (May 17, 5:00 AM)
Low39 °F (May 17, 5:00 AM)32% (May 27, 3:30 PM)29.59 "Hg (May 24, 2:30 PM)
Average61 °F68%29.93 "Hg
* Reported May 16 12:00 AM — May 31 12:30 AM, Košice, Weather by CustomWeather, © 2016

Note: Actual official high and low records may vary slightly from our data, if they occured in-between our weather recording intervals... More about our weather records

Advertising

Košice Weather History for the Previous 24 Hours

Scroll right to see more
 ConditionsComfort  
Time TempWeatherWind HumidityBarometerVisibility
12:30 AM
Tue, May 31
63 °FClear.2 mph94%29.80 "Hg10 mi
12:00 AM63 °FPassing clouds.5 mph94%29.80 "HgN/A
11:30 PM
Mon, May 30
63 °FClear.3 mph94%29.80 "Hg10 mi
11:00 PM64 °FClear.2 mph94%29.80 "Hg10 mi
10:30 PM66 °FClear.2 mph88%29.80 "Hg10 mi
10:00 PM68 °FClear.3 mph83%29.80 "Hg10 mi
9:30 PM66 °FClear.2 mph88%29.80 "Hg10 mi
9:00 PM70 °FSunny.1 mph78%29.80 "Hg10 mi
8:30 PM70 °FSunny.6 mph78%29.80 "Hg10 mi
8:00 PM72 °FScattered clouds.7 mph73%29.80 "HgN/A
7:30 PM72 °FPassing clouds.1 mph78%29.77 "HgN/A
7:00 PM73 °FPassing clouds.5 mph69%29.77 "HgN/A
6:30 PM73 °FScattered clouds.5 mph74%29.77 "HgN/A
6:00 PM75 °FScattered clouds.6 mph69%29.77 "HgN/A
5:30 PM75 °FPassing clouds.7 mph65%29.77 "HgN/A
5:00 PM77 °FPassing clouds.6 mph61%29.77 "HgN/A
4:30 PM77 °FPassing clouds.7 mph61%29.77 "HgN/A
4:00 PM75 °FPassing clouds.6 mph61%29.77 "HgN/A
3:30 PM75 °FPassing clouds.8 mph61%29.80 "HgN/A
3:00 PM75 °FPassing clouds.7 mph69%29.80 "HgN/A
2:30 PM73 °FPartly sunny.7 mph69%29.80 "HgN/A
2:00 PM73 °FPartly sunny.3 mph74%29.80 "HgN/A
1:00 PM72 °FPassing clouds.3 mph73%29.80 "HgN/A
12:30 PM68 °FLight rain. Clear.5 mph83%29.80 "HgN/A
12:00 PM68 °FLight rain. Clear.2 mph88%29.80 "HgN/A
11:00 AM70 °FSunny.6 mph78%29.80 "Hg10 mi
10:30 AM73 °FSunny.2 mph57%29.80 "Hg10 mi
10:00 AM73 °FPartly sunny.2 mph61%29.80 "HgN/A
9:30 AM72 °FSunny.2 mph65%29.80 "Hg10 mi
9:00 AM72 °FPartly sunny.6 mph65%29.80 "HgN/A
8:30 AM68 °FSunny.9 mph73%29.77 "Hg10 mi
8:00 AM66 °FPassing clouds.6 mph78%29.80 "HgN/A
7:30 AM66 °FSunny.8 mph78%29.80 "Hg10 mi
7:00 AM68 °FPassing clouds.3 mph69%29.80 "HgN/A
6:30 AM63 °FPassing clouds.7 mph83%29.80 "HgN/A
6:00 AM63 °FSunny.2 mph77%29.80 "Hg10 mi
5:30 AM61 °FClear.5 mph83%29.80 "Hg10 mi
5:00 AM61 °FClear.5 mph77%29.77 "Hg10 mi
4:30 AM61 °FClear.6 mph83%29.77 "Hg10 mi
4:00 AM61 °FClear.7 mph83%29.77 "Hg10 mi
3:30 AM63 °FClear.6 mph77%29.77 "Hg10 mi
3:00 AM63 °FClear.7 mph73%29.80 "Hg10 mi
2:30 AM63 °FClear.7 mph77%29.80 "Hg10 mi
2:00 AM63 °FClear.7 mph73%29.80 "Hg10 mi
Weather by CustomWeather, © 2016

See weather overviewHow to use our weather pages